Home   Weather   Concord   Past weeks

Flag for USA Past Weather in Concord, California, USA — Yesterday and Last 2 Weeks

Now
48 °F

Partly sunny.


Feels Like: 45 °F
Forecast: 42 / 54 °F
Wind: 7 mph from Northeast

Location: Buchanan Field

Current Time: Jan 24, 2017 at 11:33:26 am

Latest Report: Jan 24, 2017 at 10:53 am


Visibility: 10 mi

Pressure: 30.08 "Hg

Humidity: 71%

Dew Point: 39 °F

Location of ConcordLocation

Past Weather in Concord — Graph

°F

Concord Temperature Yesterday

Maximum temperature yesterday: 52 °F (at 12:53 pm)
Minimum temperature yesterday: 44 °F (at 3:53 am)
Average temperature yesterday: 47 °F

High & Low Weather Summary for the Past Weeks

 TemperatureHumidityPressure
High60 °F (Jan 10, 7:06 pm)93% (Jan 15, 6:22 am)30.21 "Hg (Jan 15, 6:22 am)
Low36 °F (Jan 13, 6:53 am)38% (Jan 13, 3:53 pm)29.28 "Hg (Jan 20, 1:53 pm)
Average48 °F76%29.90 "Hg
* Reported Jan 9 9:20 am — Jan 24 9:53 am, Concord, Weather by CustomWeather, © 2017

Note: Actual official high and low records may vary slightly from our data, if they occured in-between our weather recording intervals... More about our weather records

Advertising

Concord Weather History for the Previous 24 Hours

Scroll right to see more
 ConditionsComfort  
Time TempWeatherWind HumidityBarometerVisibility
9:53 am
Tue, Jan 24
47 °FPartly sunny.8 mph71%30.06 "Hg10 mi
9:08 am45 °FPartly sunny.6 mph76%30.08 "Hg10 mi
7:53 am43 °FOvercast.No wind82%30.00 "Hg10 mi
6:53 am43 °FLow clouds.7 mph82%29.98 "Hg9 mi
6:03 am43 °FMostly cloudy.6 mph82%29.99 "Hg8 mi
5:53 am43 °FMostly cloudy.5 mph82%29.94 "Hg8 mi
4:53 am42 °FOvercast.No wind85%29.92 "Hg10 mi
3:53 am43 °FClear.No wind86%29.90 "Hg10 mi
2:53 am44 °FOvercast.No wind82%29.89 "Hg10 mi
1:53 am44 °FOvercast.5 mph82%29.88 "Hg10 mi
12:53 am43 °FPassing clouds.7 mph82%29.87 "Hg10 mi
11:53 pm
Mon, Jan 23
44 °FPassing clouds.5 mph82%29.86 "Hg10 mi
10:53 pm45 °FOvercast.6 mph80%29.87 "Hg10 mi
9:53 pm44 °FPassing clouds.6 mph85%29.86 "Hg10 mi
8:53 pm46 °FLight rain. Mostly cloudy.6 mph83%29.85 "Hg10 mi
7:53 pm46 °FPartly cloudy.No wind77%29.84 "Hg10 mi
7:17 pm46 °FOvercast.5 mph77%29.88 "Hg6 mi
6:53 pm46 °FLight rain. Partly cloudy.6 mph73%29.84 "Hg10 mi
5:53 pm48 °FClear.8 mph68%29.82 "Hg10 mi
4:53 pm51 °FScattered clouds.8 mph61%29.81 "Hg10 mi
3:53 pm52 °FPassing clouds.9 mph59%29.80 "Hg10 mi
2:53 pm52 °FBroken clouds.10 mph64%29.80 "Hg10 mi
1:53 pm51 °FLight rain. Broken clouds.No wind61%29.80 "Hg10 mi
12:53 pm52 °FPartly sunny.9 mph69%29.81 "Hg10 mi
11:53 am50 °FLight rain. Mostly cloudy.8 mph74%29.83 "Hg8 mi
Weather by CustomWeather, © 2017

See weather overviewHow to use our weather pages